Miscellaneous Local Product
Issued by NWS Hastings, NE

Home | Current Version | Previous Version | Text Only | Print | Product List | Glossary Off
Versions: 1 2 3 4 5 6 7 8 9 10 11 12 13 14 15 16 17 18 19 20 21 22 23 24 25 26 27 28 29 30 31 32 33 34 35 36 37 38 39 40 41 42 43 44 45 46 47 48 49 50

000
AXUS43 KGID 010402
MISGRI

GID CWA HOURLY WEATHER ROUNDUP
NATIONAL WEATHER SERVICE HASTINGS NE
1100 PM CDT MON AUG 31 2015

NOTE: "FAIR" INDICATES FEW OR NO CLOUDS BELOW 12,000 FEET WITH NO
SIGNIFICANT WEATHER AND/OR OBSTRUCTIONS TO VISIBILITY.

...SOUTH CENTRAL NEBRASKA...

CITY           SKY/WX    TMP DP  RH WIND       PRES   REMARKS
GRAND ISLAND   CLEAR     73  67  81 E8        29.92S
HASTINGS       CLEAR     73  65  75 SE5       29.92S
KEARNEY        CLEAR     72  63  73 SE8       29.92S
ORD            PTCLDY    70  67  90 CALM      29.92S
YORK           CLEAR     73  68  83 SE7       29.93S
AURORA         CLEAR     71  69  91 SE7       29.92F
LEXINGTON      PTCLDY    71  66  83 E6        29.92S
HOLDREGE       CLEAR     72  60  66 SE8       29.92S
HEBRON         CLEAR     74  64  68 SE5       29.91S

...NEBRASKA PANHANDLE...

CITY           SKY/WX    TMP DP  RH WIND       PRES   REMARKS
CHADRON        CLOUDY    75  52  44 S9        29.95F
ALLIANCE       CLOUDY    73  48  41 S3        30.01F
SCOTTSBLUFF    CLOUDY    67  55  65 SW9       30.03F
SIDNEY         CLOUDY    68  54  60 NW8       30.07F

...WESTERN AND NORTH CENTRAL NEBRASKA...

CITY           SKY/WX    TMP DP  RH WIND       PRES   REMARKS
VALENTINE      MOCLDY    68  60  75 CALM      29.95S
AINSWORTH      CLOUDY    68  64  87 CALM      29.96F
ONEILL         MOCLDY    76  71  85 S8        29.93S
BROKEN BOW     MOCLDY    71  67  87 CALM      29.94S
IMPERIAL       MOCLDY    78  60  53 N18       29.95R
NORTH PLATTE   MOCLDY    74  64  71 NE9       29.93F
MCCOOK         CLEAR     78  55  44 E3        29.89S

...EASTERN NEBRASKA...

CITY           SKY/WX    TMP DP  RH WIND       PRES   REMARKS
NORFOLK        CLEAR     71  69  93 SE6       29.92R
SO SIOUX CITY  CLEAR     72  67  84 SE8       29.91R
TEKAMAH        CLEAR     68  67  96 S3        29.91F
COLUMBUS       CLEAR     70  64  83 E3        29.93S
ALBION         CLEAR     71  67  88 SE5       29.93S
OMAHA EPPLEY   CLEAR     75  69  81 S9        29.92S
OFFUTT AFB     CLEAR     73  69  87 E6        29.92S
MILLARD        CLEAR     75  70  85 SE3       29.93R
LINCOLN        CLEAR     77  68  73 S8        29.93S
NEBRASKA CITY  CLEAR     73  67  81 S8        29.94S
BEATRICE       CLEAR     74  67  79 SE6       29.92F
FALLS CITY     CLEAR     75  70  84 SE7       29.93S

...NORTHERN KANSAS...

CITY           SKY/WX    TMP DP  RH WIND       PRES   REMARKS
GOODLAND       MOCLDY    78  55  44 W18G25    30.01R
HILL CITY      CLEAR     80  52  37 S13       29.91R
NORTON         CLEAR     77  46  33 SE8       29.89S
PHILLIPSBURG   CLEAR     75  57  53 CALM      29.90S
SMITH CENTER   CLEAR     75  61  60 SE12      29.91S
HAYS           CLEAR     77  54  44 SE10      29.93R
RUSSELL        CLEAR     77  56  48 SE13      29.92R
CONCORDIA      CLEAR     78  65  63 S17G25    29.92R
SALINA         CLEAR     79  64  60 S16       29.93R
TOPEKA         CLEAR     78  69  73 S10       29.96S



USA.gov is the U.S. government's official web portal to all federal, state and local government web resources and services.